EN

Hourly Weather Bolshoe Chirikovo

Today, 23 October, Friday

Time Temperature Precipitation Wind Pressure Humidity
00:00 +6°C° 0.9 mm 4 mps 740 mmHg 95%
01:00 +7°C° 0.9 mm 4 mps 739 mmHg 96%
02:00 +7°C° 0.9 mm 4 mps 739 mmHg 96%
03:00 +8°C° 0.6 mm 4 mps 739 mmHg 94%
04:00 +9°C° 0.6 mm 5 mps 739 mmHg 93%
05:00 +10°C° 0.6 mm 5 mps 738 mmHg 91%
06:00 +10°C° 0.1 mm 5 mps 739 mmHg 88%
07:00 +10°C° 0.1 mm 5 mps 739 mmHg 84%
08:00 +10°C° 0.1 mm 6 mps 739 mmHg 81%
09:00 +10°C° 0.1 mm 5 mps 740 mmHg 82%
10:00 +10°C° 0.1 mm 5 mps 740 mmHg 84%
11:00 +10°C° 0.1 mm 5 mps 740 mmHg 85%
12:00 +10°C° 0 mm 5 mps 740 mmHg 82%
13:00 +10°C° 0 mm 5 mps 741 mmHg 79%
14:00 +12°C° 0 mm 5 mps 741 mmHg 76%
15:00 +10°C° 0 mm 5 mps 740 mmHg 79%
16:00 +11°C° 0 mm 4 mps 740 mmHg 82%
17:00 +10°C° 0 mm 4 mps 740 mmHg 85%
18:00 +10°C° 0.2 mm 4 mps 739 mmHg 87%
19:00 +10°C° 0.2 mm 4 mps 739 mmHg 89%
20:00 +10°C° 0.2 mm 4 mps 739 mmHg 90%
21:00 +10°C° 0.3 mm 4 mps 739 mmHg 91%
22:00 +10°C° 0.3 mm 4 mps 738 mmHg 91%
23:00 +10°C° 0.3 mm 4 mps 738 mmHg 91%

Tomorrow, 24 October, Saturday

Time Temperature Precipitation Wind Pressure Humidity
00:00 +8°C° 0.1 mm 4 mps 739 mmHg 89%
01:00 +8°C° 0.1 mm 4 mps 739 mmHg 87%
02:00 +8°C° 0.1 mm 4 mps 740 mmHg 85%
03:00 +8°C° 0 mm 4 mps 740 mmHg 85%
04:00 +7°C° 0 mm 4 mps 741 mmHg 85%
05:00 +7°C° 0 mm 4 mps 741 mmHg 85%
06:00 +7°C° 0 mm 4 mps 741 mmHg 86%
07:00 +7°C° 0 mm 4 mps 742 mmHg 86%
08:00 +7°C° 0 mm 3 mps 743 mmHg 86%
09:00 +8°C° 0 mm 3 mps 743 mmHg 83%
10:00 +9°C° 0 mm 3 mps 743 mmHg 81%
11:00 +8°C° 0 mm 4 mps 744 mmHg 78%
12:00 +8°C° 0 mm 4 mps 744 mmHg 76%
13:00 +8°C° 0 mm 4 mps 744 mmHg 75%
14:00 +7°C° 0 mm 4 mps 744 mmHg 73%
15:00 +8°C° 0 mm 3 mps 744 mmHg 76%
16:00 +7°C° 0 mm 2 mps 744 mmHg 80%
17:00 +7°C° 0 mm 2 mps 744 mmHg 83%
18:00 +6°C° 0 mm 2 mps 745 mmHg 85%
19:00 +6°C° 0 mm 2 mps 745 mmHg 87%
20:00 +6°C° 0 mm 2 mps 745 mmHg 88%
21:00 +7°C° 0 mm 1 mps 745 mmHg 90%
22:00 +7°C° 0 mm 1 mps 745 mmHg 91%
23:00 +7°C° 0 mm 1 mps 745 mmHg 93%

Day after tomorrow, 25 October, Sunday

Time Temperature Precipitation Wind Pressure Humidity
00:00 +7°C° 0 mm 1 mps 745 mmHg 94%
01:00 +7°C° 0 mm 1 mps 745 mmHg 94%
02:00 +7°C° 0 mm 1 mps 745 mmHg 95%
03:00 +7°C° 0.1 mm 1 mps 745 mmHg 95%
04:00 +7°C° 0.1 mm 1 mps 745 mmHg 94%
05:00 +7°C° 0.1 mm 1 mps 745 mmHg 94%
06:00 +7°C° 0 mm 1 mps 744 mmHg 93%
07:00 +6°C° 0 mm 2 mps 744 mmHg 92%
08:00 +7°C° 0 mm 2 mps 744 mmHg 91%
09:00 +7°C° 0.1 mm 2 mps 744 mmHg 91%
10:00 +7°C° 0.1 mm 2 mps 745 mmHg 90%
11:00 +7°C° 0.1 mm 2 mps 745 mmHg 90%
12:00 +7°C° 0.2 mm 2 mps 746 mmHg 91%
13:00 +8°C° 0.2 mm 2 mps 746 mmHg 91%
14:00 +8°C° 0.2 mm 2 mps 747 mmHg 92%
15:00 +8°C° 0 mm 3 mps 747 mmHg 90%
16:00 +6°C° 0 mm 4 mps 748 mmHg 88%
17:00 +6°C° 0 mm 4 mps 749 mmHg 86%
18:00 +5°C° 0 mm 4 mps 749 mmHg 88%
19:00 +5°C° 0 mm 3 mps 750 mmHg 90%
20:00 +5°C° 0 mm 2 mps 751 mmHg 92%
21:00 +4°C° 0 mm 2 mps 751 mmHg 92%
22:00 +3°C° 0 mm 2 mps 752 mmHg 93%
23:00 +3°C° 0 mm 2 mps 752 mmHg 94%

, 26 October, Monday

Time Temperature Precipitation Wind Pressure Humidity
00:00 +2°C° 0 mm 2 mps 753 mmHg 94%
01:00 +2°C° 0 mm 2 mps 753 mmHg 94%
02:00 +3°C° 0 mm 1 mps 754 mmHg 94%
03:00 +3°C° 0 mm 1 mps 754 mmHg 95%
04:00 +2°C° 0 mm 1 mps 755 mmHg 95%
05:00 +2°C° 0 mm 1 mps 755 mmHg 95%
06:00 +3°C° 0 mm 1 mps 755 mmHg 94%
07:00 +3°C° 0 mm 1 mps 756 mmHg 92%
08:00 +4°C° 0 mm 1 mps 756 mmHg 91%
09:00 +5°C° 0 mm 1 mps 756 mmHg 87%
10:00 +6°C° 0 mm 1 mps 757 mmHg 82%
11:00 +7°C° 0 mm 1 mps 757 mmHg 78%
12:00 +8°C° 0 mm 1 mps 757 mmHg 78%
13:00 +8°C° 0 mm 1 mps 757 mmHg 78%
14:00 +9°C° 0 mm 1 mps 757 mmHg 78%
15:00 +8°C° 0 mm 1 mps 757 mmHg 82%
16:00 +7°C° 0 mm 1 mps 757 mmHg 87%
17:00 +6°C° 0 mm 1 mps 757 mmHg 91%
18:00 +5°C° 0 mm 1 mps 758 mmHg 91%
19:00 +5°C° 0 mm 1 mps 758 mmHg 92%
20:00 +5°C° 0 mm 1 mps 758 mmHg 92%
21:00 +4°C° 0 mm 2 mps 758 mmHg 93%
22:00 +4°C° 0 mm 2 mps 758 mmHg 93%
23:00 +3°C° 0 mm 2 mps 758 mmHg 93%

26 October, Monday

Time Temperature Precipitation Wind Pressure Humidity
00:00 +2°C° 0 mm 2 mps 753 mmHg 94%
01:00 +2°C° 0 mm 2 mps 753 mmHg 94%
02:00 +3°C° 0 mm 1 mps 754 mmHg 94%
03:00 +3°C° 0 mm 1 mps 754 mmHg 95%
04:00 +2°C° 0 mm 1 mps 755 mmHg 95%
05:00 +2°C° 0 mm 1 mps 755 mmHg 95%
06:00 +3°C° 0 mm 1 mps 755 mmHg 94%
07:00 +3°C° 0 mm 1 mps 756 mmHg 92%
08:00 +4°C° 0 mm 1 mps 756 mmHg 91%
09:00 +5°C° 0 mm 1 mps 756 mmHg 87%
10:00 +6°C° 0 mm 1 mps 757 mmHg 82%
11:00 +7°C° 0 mm 1 mps 757 mmHg 78%
12:00 +8°C° 0 mm 1 mps 757 mmHg 78%
13:00 +8°C° 0 mm 1 mps 757 mmHg 78%
14:00 +9°C° 0 mm 1 mps 757 mmHg 78%
15:00 +8°C° 0 mm 1 mps 757 mmHg 82%
16:00 +7°C° 0 mm 1 mps 757 mmHg 87%
17:00 +6°C° 0 mm 1 mps 757 mmHg 91%
18:00 +5°C° 0 mm 1 mps 758 mmHg 91%
19:00 +5°C° 0 mm 1 mps 758 mmHg 92%
20:00 +5°C° 0 mm 1 mps 758 mmHg 92%
21:00 +4°C° 0 mm 2 mps 758 mmHg 93%
22:00 +4°C° 0 mm 2 mps 758 mmHg 93%
23:00 +3°C° 0 mm 2 mps 758 mmHg 93%

27 October, Tuesday

Time Temperature Precipitation Wind Pressure Humidity
00:00 +3°C° 0 mm 2 mps 758 mmHg 93%
01:00 +3°C° 0 mm 2 mps 758 mmHg 93%
02:00 +3°C° 0 mm 2 mps 758 mmHg 93%
03:00 +3°C° 0 mm 2 mps 758 mmHg 93%
04:00 +2°C° 0 mm 2 mps 759 mmHg 93%
05:00 +2°C° 0 mm 2 mps 759 mmHg 93%
06:00 +3°C° 0 mm 2 mps 758 mmHg 91%
07:00 +2°C° 0 mm 3 mps 758 mmHg 90%
08:00 +2°C° 0 mm 3 mps 758 mmHg 89%
09:00 +3°C° 0 mm 3 mps 758 mmHg 85%
10:00 +5°C° 0 mm 3 mps 758 mmHg 81%
11:00 +6°C° 0 mm 4 mps 758 mmHg 76%
12:00 +6°C° 0 mm 4 mps 758 mmHg 75%
13:00 +6°C° 0 mm 4 mps 758 mmHg 74%
14:00 +6°C° 0 mm 4 mps 757 mmHg 73%
15:00 +6°C° 0 mm 4 mps 757 mmHg 76%
16:00 +5°C° 0 mm 3 mps 757 mmHg 78%
17:00 +5°C° 0 mm 3 mps 756 mmHg 81%
18:00 +5°C° 0 mm 4 mps 756 mmHg 81%
19:00 +5°C° 0 mm 4 mps 756 mmHg 80%
20:00 +5°C° 0 mm 4 mps 756 mmHg 80%
21:00 +5°C° 0.2 mm 4 mps 755 mmHg 82%
22:00 +5°C° 0.2 mm 4 mps 755 mmHg 85%
23:00 +5°C° 0.2 mm 4 mps 755 mmHg 87%

28 October, Wednesday

Time Temperature Precipitation Wind Pressure Humidity
00:00 +5°C° 0.1 mm 4 mps 755 mmHg 87%
01:00 +5°C° 0.1 mm 4 mps 755 mmHg 87%
02:00 +7°C° 0.1 mm 3 mps 755 mmHg 86%
03:00 +5°C° 0 mm 3 mps 755 mmHg 87%
04:00 +5°C° 0 mm 3 mps 754 mmHg 88%
05:00 +5°C° 0 mm 3 mps 754 mmHg 88%
06:00 +5°C° 0 mm 3 mps 754 mmHg 89%
07:00 +5°C° 0 mm 4 mps 754 mmHg 90%
08:00 +5°C° 0 mm 4 mps 754 mmHg 91%
09:00 +6°C° 0 mm 4 mps 754 mmHg 88%
10:00 +7°C° 0 mm 4 mps 753 mmHg 85%
11:00 +8°C° 0 mm 4 mps 753 mmHg 82%
12:00 +8°C° 0 mm 4 mps 753 mmHg 81%
13:00 +10°C° 0 mm 4 mps 753 mmHg 80%
14:00 +10°C° 0 mm 4 mps 752 mmHg 79%
15:00 +10°C° 0 mm 4 mps 752 mmHg 81%
16:00 +10°C° 0 mm 4 mps 752 mmHg 82%
17:00 +8°C° 0 mm 4 mps 752 mmHg 83%
18:00 +8°C° 0 mm 4 mps 752 mmHg 85%
19:00 +8°C° 0 mm 4 mps 752 mmHg 86%
20:00 +7°C° 0 mm 4 mps 751 mmHg 88%
21:00 +7°C° 0.3 mm 4 mps 751 mmHg 89%
22:00 +7°C° 0.3 mm 4 mps 752 mmHg 89%
23:00 +8°C° 0.3 mm 4 mps 752 mmHg 90%
Show more